Regional Weather Roundup
Issued by NWS

Home | Current Version | Previous Version | Graphics & Text | Print | Product List | Glossary On
Versions: 1 2 3 4 5 6 7 8 9 10 11 12 13 14 15 16 17 18 19 20 21 22 23 24 25 26 27 28 29 30 31 32 33 34 35 36 37 38 39 40 41 42 43 44 45 46 47 48 49 50
000
ASUS43 KLOT 011906
RWRIL

ILLINOIS REGIONAL WEATHER ROUNDUP
NATIONAL WEATHER SERVICE CHICAGO/ROMEOVILLE IL
100 PM CST SUN FEB 01 2015

NOTE: "FAIR" INDICATES FEW OR NO CLOUDS BELOW 12,000 FEET WITH NO
SIGNIFICANT WEATHER AND/OR OBSTRUCTIONS TO VISIBILITY.

* THESE STATIONS ARE NOT UNDER NWS QUALITY CONTROL. THEY ALSO MAY NOT
  REPORT WEATHER SUCH AS PRECIPITATION OR FOG.

ILZ001-002-007-009-015-016-024-012000-
NORTHWEST ILLINOIS

CITY           SKY/WX    TMP DP  RH WIND       PRES   REMARKS
MOLINE         LGT SNOW  25  21  85 NE15G30   29.77F VSB 3/4 WCI  13
STERLING*        N/A    N/A N/A N/A MISG        N/A
SAVANNA*       LGT SNOW  24  20  85 NE20      29.82F WCI   9
$$

ILZ003-004-008-010-011-017-018-012000-
NORTH CENTRAL ILLINOIS

CITY           SKY/WX    TMP DP  RH WIND       PRES   REMARKS
ROCKFORD       LGT SNOW  24  20  84 NE26G38   29.85F VSB 3/4 WCI   8
FREEPORT*      LGT SNOW  22  19  89 NE20G29   29.86F VSB 1   WCI   7
ROCHELLE*      LGT SNOW  25  23  93 NE20      29.79S VSB 1   WCI  11
DE KALB*       LGT SNOW  24  22  91 NE23G32   29.78F WCI   8
PERU*          LGT SNOW  32  32 100 NE16      29.72F VSB 3/4 WCI  21
$$

ILZ005-006-012>014-019>023-012000-
NORTHEAST ILLINOIS

CITY           SKY/WX    TMP DP  RH WIND       PRES   REMARKS
CHICAGO-OHARE  HVY SNOW  25  24  96 NE24G31   29.76F VSB 1/4 WCI   9
CHICAGO-MIDWAY LGT SNOW  30  27  88 NE23G30   29.73F VSB 3/4 WCI  17
AURORA         HVY SNOW  28  23  81 NE29G35   29.74F VSB 1/4 WCI  12
LANSING*       SNOW      31  31  98 NE8       29.71F VSB 1/2 WCI  24
JOLIET*        LGT SNOW  30  28  93 NE7       29.72F VSB 1   WCI  23
WAUKEGAN       HVY SNOW  23  21  92 NE24G35   29.83F VSB 1/4 WCI   7
DUPAGE AIRPORT SNOW      27  23  85 NE24G33   29.75F VSB 1/4 WCI  12
KANKAKEE*      LGT SNOW  33  32  98 E8        29.69F VSB 1   WCI  25
WHEELING       HVY SNOW  25  23  92 NE15G29   29.82F VSB 1/4 WCI  13
MORRIS*        LGT SNOW  31  31 100 NE6       29.71S VSB 3/4 WCI  25
ROMEOVILLE*    LGT SNOW  30  29  96 NE12      29.72F VSB 1   WCI  20
NORTHERLY ISL    N/A     28  27  96 NE26        N/A  WCI  13
$$

LMZ740>746-012000-
SOUTHERN LAKE MICHIGAN

STATION/POSITION SKY/WX   TEMP    WIND        PRES    VSBY  WAVE
                          AIR SEA DIR/SP/G                  HT/PER
                          (F)     (DEG/KT/KT) (MB)    (MI)  (FT/S)
WAUKEGAN HARBOR            25      50/ 34/ 37   N/A
HARRISON CRIB              26      60/ 34/ 39   N/A
BURNHAM HARBOR             27      50/ 28/ 30   N/A
CALUMET HARBOR             28      40/ 18/ 27   N/A
MICHIGAN CITY              28      50/ 15/ 20   N/A
$$

ILZ025>027-034>036-040-047-049-050-058-095>099-012000-
WEST-CENTRAL ILLINOIS

CITY           SKY/WX    TMP DP  RH WIND       PRES   REMARKS
QUINCY         LGT SNOW  34  31  88 N6        29.65F FOG     WCI  29
GALESBURG*     LGT SNOW  30  29  96 NE25      29.68F WCI  16
MACOMB*        LGT RAIN  33  33  99 N9        29.69F WCI  25
JACKSONVILLE*  LGT RAIN  35  33  94 W5        29.65F WCI  31
PITTSFIELD*    LGT RAIN  34  33  96 W3        29.66F
$$

ILZ028>032-037-038-041>044-048-051>054-059>061-012000-
CENTRAL ILLINOIS

CITY           SKY/WX    TMP DP  RH WIND       PRES   REMARKS
PONTIAC        HVY SNOW  33  33  99 NE10      29.68F VSB 1/4 WCI  25
BLOOMINGTON    SNOW      33  33 100 E3        29.65F VSB 1/2
DECATUR        MIX PCPN  35  34  96 SW6       29.63F FOG     WCI  30
PEORIA         LGT SNOW  35  32  88 NE6       29.67F FOG     WCI  30
LACON*         LGT SNOW  32  31  96 N5        29.69F VSB 3/4 WCI  27
LINCOLN*       LGT SNOW  35  34  96 CALM      29.65F VSB 3/4
SPRINGFIELD    LGT SNOW  35  33  92 CALM      29.64F VSB 1
TAYLORVILLE    LGT RAIN  34  32  93 SW5       29.64F WCI  30
$$

ILZ033-039-045-046-055>057-062-063-012000-
EAST-CENTRAL ILLINOIS

CITY           SKY/WX    TMP DP  RH WIND       PRES   REMARKS
CHAMPAIGN      LGT SNOW  34  33  96 S6        29.63F FOG     WCI  29
DANVILLE*      LGT RAIN  33  32  97 SE6       29.61F WCI  27
RANTOUL*       MIX PCPN  35  34  96 SE5       29.63F WCI  30
MATTOON        MIX PCPN  35  33  92 S8        29.62F FOG     WCI  29
PARIS*         CLOUDY    34  34  99 SE8       29.64F FOG     WCI  27
$$

ILZ079-100>102-012000-
SOUTHWEST ILLINOIS

CITY           SKY/WX    TMP DP  RH WIND       PRES   REMARKS
BELLEVILLE     CLOUDY    42  42 100 SW5       29.63F
CAHOKIA*       CLOUDY    42  40  92 W5        29.64F
SPARTA*        CLOUDY    42  41  96 SW9       29.65F
$$

ILZ064>066-069>071-074>076-080>082-084>086-088>090-092>094-012000-
SOUTH-CENTRAL ILLINOIS

CITY           SKY/WX    TMP DP  RH WIND       PRES   REMARKS
CARBONDALE     LGT RAIN  45  43  93 SW7       29.65F FOG
CAIRO*         RAIN     N/A N/A N/A SW3       29.67F VSB 1
EFFINGHAM*     RAIN      38  35  91 SE3       29.65F
MARION         LGT RAIN  45  45 100 S12       29.67F FOG
MT. VERNON     CLOUDY    43  39  87 SW9       29.64F
CENTRALIA*     CLOUDY    41  39  93 S7        29.62F FOG
SALEM*         RAIN      42  40  93 S5        29.63F
METROPOLIS*    DRIZZLE   49  49 100 S5        29.65F
$$

ILZ067-068-072-073-078-083-087-091-012000-
SOUTHEAST ILLINOIS

CITY           SKY/WX    TMP DP  RH WIND       PRES   REMARKS
LAWRENCEVILLE  LGT RAIN  41  40  96 S12       29.65F FOG
FLORA*         DRIZZLE   39  39 100 S6        29.65F WCI  35
FAIRFIELD*     RAIN      42  42  99 S8        29.63F
HARRISBURG*    RAIN      45  45 100 S6        29.65F
ROBINSON*      DRIZZLE   38  38  98 SE7       29.65F WCI  33
CARMI*         CLOUDY    45  45  99 S8        29.64F FOG
$$

ABBREVIATIONS USED IN REMARKS
   TC - TEMPERATURE IN CELSIUS
  WCI - WIND CHILL INDEX
   HX - HEAT INDEX
  VSB - VISIBILITY
$$



USA.gov is the U.S. government's official web portal to all federal, state and local government web resources and services.